Year,Month,Day,Hour,Minute,Value (Times are PST for temperature in C)
2016,08,30,00,01,14.50
2016,08,30,00,02,14.50
2016,08,30,00,03,14.50
2016,08,30,00,04,14.50
2016,08,30,00,06,14.50
2016,08,30,00,07,14.50
2016,08,30,00,09,14.50
2016,08,30,00,11,14.40
2016,08,30,00,12,14.40
2016,08,30,00,13,14.40
2016,08,30,00,14,14.40
2016,08,30,00,16,14.40
2016,08,30,00,17,14.40
2016,08,30,00,18,14.40
2016,08,30,00,19,14.40
2016,08,30,00,21,14.30
2016,08,30,00,22,14.30
2016,08,30,00,23,14.30
2016,08,30,00,24,14.30
2016,08,30,00,26,14.30
2016,08,30,00,27,14.30
2016,08,30,00,28,14.30
2016,08,30,00,29,14.30
2016,08,30,00,31,14.30
2016,08,30,00,32,14.30
2016,08,30,00,33,14.30
2016,08,30,00,34,14.20
2016,08,30,00,36,14.20
2016,08,30,00,37,14.20
2016,08,30,00,38,14.20
2016,08,30,00,39,14.20
2016,08,30,00,41,14.20
2016,08,30,00,42,14.20
2016,08,30,00,43,14.20
2016,08,30,00,44,14.20
2016,08,30,00,45,14.20
2016,08,30,00,46,14.20
2016,08,30,00,47,14.20
2016,08,30,00,48,14.20
2016,08,30,00,49,14.20
2016,08,30,00,51,14.20
2016,08,30,00,52,14.20
2016,08,30,00,53,14.20
2016,08,30,00,54,14.20
2016,08,30,00,55,14.20
2016,08,30,00,56,14.20
2016,08,30,00,57,14.20
2016,08,30,00,58,14.20
2016,08,30,00,59,14.20
2016,08,30,01,00,14.20
2016,08,30,01,01,14.20
2016,08,30,01,02,14.20
2016,08,30,01,03,14.20
2016,08,30,01,04,14.10
2016,08,30,01,06,14.10
2016,08,30,01,07,14.10
2016,08,30,01,08,14.10
2016,08,30,01,09,14.10
2016,08,30,01,10,14.10
2016,08,30,01,11,14.10
2016,08,30,01,12,14.10
2016,08,30,01,13,14.00
2016,08,30,01,14,14.00
2016,08,30,01,15,14.00
2016,08,30,01,16,14.00
2016,08,30,01,17,14.00
2016,08,30,01,18,14.00
2016,08,30,01,19,14.00
2016,08,30,01,20,14.00
2016,08,30,01,21,13.90
2016,08,30,01,22,13.90
2016,08,30,01,23,13.90
2016,08,30,01,24,13.90
2016,08,30,01,25,13.90
2016,08,30,01,26,13.90
2016,08,30,01,27,13.90
2016,08,30,01,28,13.90
2016,08,30,01,29,13.80
2016,08,30,01,30,13.80
2016,08,30,01,31,13.80
2016,08,30,01,32,13.80
2016,08,30,01,33,13.80
2016,08,30,01,34,13.80
2016,08,30,01,35,13.80
2016,08,30,01,36,13.80
2016,08,30,01,37,13.80
2016,08,30,01,38,13.80
2016,08,30,01,39,13.80
2016,08,30,01,40,13.80
2016,08,30,01,41,13.70
2016,08,30,01,42,13.70
2016,08,30,01,43,13.70
2016,08,30,01,44,13.70
2016,08,30,01,45,13.70
2016,08,30,01,46,13.70
2016,08,30,01,47,13.70
2016,08,30,01,48,13.70
2016,08,30,01,49,13.70
2016,08,30,01,50,13.70
2016,08,30,01,51,13.70
2016,08,30,01,52,13.70
2016,08,30,01,53,13.70
2016,08,30,01,54,13.70
2016,08,30,01,55,13.70
2016,08,30,01,56,13.70
2016,08,30,01,57,13.70
2016,08,30,01,58,13.70
2016,08,30,01,59,13.70
2016,08,30,02,00,13.70
2016,08,30,02,01,13.70
2016,08,30,02,02,13.70
2016,08,30,02,03,13.60
2016,08,30,02,04,13.60
2016,08,30,02,05,13.60
2016,08,30,02,06,13.60
2016,08,30,02,07,13.60
2016,08,30,02,08,13.60
2016,08,30,02,09,13.60
2016,08,30,02,10,13.60
2016,08,30,02,11,13.60
2016,08,30,02,12,13.60
2016,08,30,02,14,13.60
2016,08,30,02,16,13.60
2016,08,30,02,17,13.70
2016,08,30,02,18,13.70
2016,08,30,02,19,13.70
2016,08,30,02,21,13.80
2016,08,30,02,22,13.90
2016,08,30,02,23,14.00
2016,08,30,02,24,14.00
2016,08,30,02,26,14.20
2016,08,30,02,27,14.20
2016,08,30,02,28,14.20
2016,08,30,02,29,14.20
2016,08,30,02,31,14.30
2016,08,30,02,32,14.30
2016,08,30,02,33,14.30
2016,08,30,02,34,14.30
2016,08,30,02,36,14.30
2016,08,30,02,37,14.30
2016,08,30,02,38,14.30
2016,08,30,02,39,14.30
2016,08,30,02,41,14.30
2016,08,30,02,42,14.20
2016,08,30,02,43,14.20
2016,08,30,02,44,14.20
2016,08,30,02,46,14.20
2016,08,30,02,47,14.20
2016,08,30,02,48,14.10
2016,08,30,02,49,14.10
2016,08,30,02,51,14.00
2016,08,30,02,52,14.00
2016,08,30,02,53,14.00
2016,08,30,02,54,14.00
2016,08,30,02,56,14.00
2016,08,30,02,57,13.90
2016,08,30,02,58,13.90
2016,08,30,02,59,13.90
2016,08,30,03,01,13.80
2016,08,30,03,02,13.70
2016,08,30,03,03,13.70
2016,08,30,03,04,13.70
2016,08,30,03,06,13.60
2016,08,30,03,07,13.60
2016,08,30,03,08,13.50
2016,08,30,03,09,13.50
2016,08,30,03,11,13.50
2016,08,30,03,12,13.50
2016,08,30,03,13,13.40
2016,08,30,03,14,13.40
2016,08,30,03,16,13.40
2016,08,30,03,17,13.30
2016,08,30,03,18,13.30
2016,08,30,03,19,13.30
2016,08,30,03,21,13.30
2016,08,30,03,22,13.30
2016,08,30,03,23,13.30
2016,08,30,03,24,13.30
2016,08,30,03,26,13.20
2016,08,30,03,27,13.20
2016,08,30,03,28,13.20
2016,08,30,03,29,13.20
2016,08,30,03,31,13.20
2016,08,30,03,32,13.20
2016,08,30,03,33,13.20
2016,08,30,03,34,13.20
2016,08,30,03,36,13.20
2016,08,30,03,37,13.20
2016,08,30,03,38,13.20
2016,08,30,03,39,13.20
2016,08,30,03,41,13.20
2016,08,30,03,42,13.20
2016,08,30,03,43,13.20
2016,08,30,03,44,13.20
2016,08,30,03,45,13.20
2016,08,30,03,46,13.10
2016,08,30,03,47,13.10
2016,08,30,03,48,13.10
2016,08,30,03,49,13.10
2016,08,30,03,51,13.10
2016,08,30,03,52,13.10
2016,08,30,03,53,13.10
2016,08,30,03,54,13.10
2016,08,30,03,55,13.10
2016,08,30,03,56,13.10
2016,08,30,03,57,13.10
2016,08,30,03,58,13.10
2016,08,30,03,59,13.10
2016,08,30,04,00,13.10
2016,08,30,04,01,13.20
2016,08,30,04,02,13.20
2016,08,30,04,03,13.20
2016,08,30,04,04,13.30
2016,08,30,04,05,13.30
2016,08,30,04,06,13.30
2016,08,30,04,07,13.30
2016,08,30,04,08,13.30
2016,08,30,04,09,13.40
2016,08,30,04,10,13.40
2016,08,30,04,11,13.40
2016,08,30,04,12,13.40
2016,08,30,04,13,13.40
2016,08,30,04,14,13.50
2016,08,30,04,15,13.50
2016,08,30,04,16,13.40
2016,08,30,04,17,13.40
2016,08,30,04,18,13.40
2016,08,30,04,19,13.40
2016,08,30,04,20,13.30
2016,08,30,04,21,13.30
2016,08,30,04,22,13.30
2016,08,30,04,23,13.30
2016,08,30,04,24,13.30
2016,08,30,04,25,13.30
2016,08,30,04,26,13.30
2016,08,30,04,27,13.30
2016,08,30,04,28,13.30
2016,08,30,04,29,13.30
2016,08,30,04,30,13.30
2016,08,30,04,31,13.30
2016,08,30,04,32,13.30
2016,08,30,04,33,13.30
2016,08,30,04,34,13.30
2016,08,30,04,35,13.30
2016,08,30,04,36,13.30
2016,08,30,04,37,13.30
2016,08,30,04,38,13.30
2016,08,30,04,39,13.30
2016,08,30,04,40,13.30
2016,08,30,04,42,13.30
2016,08,30,04,44,13.30
2016,08,30,04,46,13.30
2016,08,30,04,47,13.30
2016,08,30,04,48,13.30
2016,08,30,04,49,13.30
2016,08,30,04,51,13.30
2016,08,30,04,52,13.30
2016,08,30,04,53,13.30
2016,08,30,04,54,13.30
2016,08,30,04,56,13.30
2016,08,30,04,57,13.30
2016,08,30,04,58,13.30
2016,08,30,04,59,13.30
2016,08,30,05,00,13.30
2016,08,30,05,02,13.30
2016,08,30,05,03,13.30
2016,08,30,05,04,13.30
2016,08,30,05,06,13.30
2016,08,30,05,07,13.30
2016,08,30,05,08,13.20
2016,08,30,05,09,13.20
2016,08,30,05,11,13.20
2016,08,30,05,12,13.20
2016,08,30,05,13,13.20
2016,08,30,05,14,13.20
2016,08,30,05,16,13.20
2016,08,30,05,17,13.20
2016,08,30,05,18,13.20
2016,08,30,05,19,13.20
2016,08,30,05,21,13.20
2016,08,30,05,22,13.20
2016,08,30,05,23,13.20
2016,08,30,05,24,13.20
2016,08,30,05,26,13.20
2016,08,30,05,27,13.20
2016,08,30,05,28,13.10
2016,08,30,05,29,13.10
2016,08,30,05,31,13.10
2016,08,30,05,32,13.10
2016,08,30,05,33,13.10
2016,08,30,05,34,13.10
2016,08,30,05,36,13.00
2016,08,30,05,37,13.00
2016,08,30,05,38,13.00
2016,08,30,05,39,13.00
2016,08,30,05,41,13.00
2016,08,30,05,42,13.00
2016,08,30,05,43,13.00
2016,08,30,05,44,12.90
2016,08,30,05,46,12.90
2016,08,30,05,47,12.90
2016,08,30,05,48,12.90
2016,08,30,05,49,12.90
2016,08,30,05,51,12.90
2016,08,30,05,52,13.00
2016,08,30,05,53,13.00
2016,08,30,05,54,13.00
2016,08,30,05,56,13.00
2016,08,30,05,57,13.00
2016,08,30,05,58,13.00
2016,08,30,05,59,13.00
2016,08,30,06,01,13.00
2016,08,30,06,02,13.10
2016,08,30,06,03,13.10
2016,08,30,06,04,13.10
2016,08,30,06,06,13.10
2016,08,30,06,07,13.10
2016,08,30,06,08,13.20
2016,08,30,06,09,13.20
2016,08,30,06,11,13.20
2016,08,30,06,12,13.20
2016,08,30,06,13,13.20
2016,08,30,06,14,13.20
2016,08,30,06,15,13.30
2016,08,30,06,16,13.30
2016,08,30,06,17,13.30
2016,08,30,06,18,13.30
2016,08,30,06,19,13.30
2016,08,30,06,21,13.30
2016,08,30,06,22,13.30
2016,08,30,06,23,13.30
2016,08,30,06,24,13.30
2016,08,30,06,25,13.30
2016,08,30,06,26,13.30
2016,08,30,06,27,13.30
2016,08,30,06,28,13.40
2016,08,30,06,29,13.40
2016,08,30,06,30,13.40
2016,08,30,06,31,13.40
2016,08,30,06,32,13.40
2016,08,30,06,33,13.40
2016,08,30,06,34,13.50
2016,08,30,06,35,13.50
2016,08,30,06,36,13.50
2016,08,30,06,37,13.50
2016,08,30,06,38,13.60
2016,08,30,06,39,13.60
2016,08,30,06,40,13.60
2016,08,30,06,41,13.70
2016,08,30,06,42,13.70
2016,08,30,06,43,13.70
2016,08,30,06,44,13.70
2016,08,30,06,45,13.70
2016,08,30,06,46,13.70
2016,08,30,06,47,13.70
2016,08,30,06,48,13.70
2016,08,30,06,49,13.70
2016,08,30,06,50,13.70
2016,08,30,06,51,13.70
2016,08,30,06,52,13.60
2016,08,30,06,53,13.60
2016,08,30,06,54,13.60
2016,08,30,06,55,13.60
2016,08,30,06,56,13.60
2016,08,30,06,57,13.60
2016,08,30,06,58,13.60
2016,08,30,06,59,13.60
2016,08,30,07,00,13.60
2016,08,30,07,01,13.60
2016,08,30,07,02,13.60
2016,08,30,07,03,13.50
2016,08,30,07,04,13.50
2016,08,30,07,05,13.50
2016,08,30,07,06,13.50
2016,08,30,07,07,13.50
2016,08,30,07,08,13.50
2016,08,30,07,09,13.50
2016,08,30,07,10,13.50
2016,08,30,07,11,13.50
2016,08,30,07,12,13.50
2016,08,30,07,13,13.60
2016,08,30,07,14,13.60
2016,08,30,07,15,13.60
2016,08,30,07,16,13.60
2016,08,30,07,17,13.60
2016,08,30,07,18,13.60
2016,08,30,07,19,13.60
2016,08,30,07,20,13.60
2016,08,30,07,21,13.50
2016,08,30,07,22,13.50
2016,08,30,07,23,13.50
2016,08,30,07,24,13.50
2016,08,30,07,25,13.50
2016,08,30,07,26,13.40
2016,08,30,07,27,13.40
2016,08,30,07,28,13.40
2016,08,30,07,29,13.40
2016,08,30,07,30,13.40
2016,08,30,07,31,13.40
2016,08,30,07,32,13.40
2016,08,30,07,33,13.40
2016,08,30,07,34,13.40
2016,08,30,07,35,13.40
2016,08,30,07,36,13.40
2016,08,30,07,37,13.50
2016,08,30,07,38,13.60
2016,08,30,07,39,13.60
2016,08,30,07,41,13.70
2016,08,30,07,43,13.70
2016,08,30,07,44,13.70
2016,08,30,07,46,13.70
2016,08,30,07,47,13.70
2016,08,30,07,48,13.70
2016,08,30,07,49,13.70
2016,08,30,07,51,13.70
2016,08,30,07,52,13.70
2016,08,30,07,53,13.70
2016,08,30,07,54,13.70
2016,08,30,07,56,13.60
2016,08,30,07,57,13.60
2016,08,30,07,58,13.60
2016,08,30,07,59,13.60
2016,08,30,08,01,13.60
2016,08,30,08,02,13.60
2016,08,30,08,03,13.60
2016,08,30,08,04,13.60
2016,08,30,08,06,13.60
2016,08,30,08,07,13.60
2016,08,30,08,08,13.60
2016,08,30,08,09,13.60
2016,08,30,08,11,13.60
2016,08,30,08,12,13.60
2016,08,30,08,13,13.60
2016,08,30,08,14,13.60
2016,08,30,08,16,13.70
2016,08,30,08,17,13.70
2016,08,30,08,18,13.70
2016,08,30,08,19,13.70
2016,08,30,08,21,13.70
2016,08,30,08,22,13.70
2016,08,30,08,23,13.70
2016,08,30,08,24,13.70
2016,08,30,08,26,13.70
2016,08,30,08,27,13.70
2016,08,30,08,28,13.70
2016,08,30,08,29,13.70
2016,08,30,08,31,13.70
2016,08,30,08,32,13.80
2016,08,30,08,33,13.80
2016,08,30,08,34,13.90
2016,08,30,08,36,14.00
2016,08,30,08,37,14.00
2016,08,30,08,38,14.10
2016,08,30,08,39,14.20
2016,08,30,08,41,14.20
2016,08,30,08,42,14.30
2016,08,30,08,43,14.40
2016,08,30,08,44,14.50
2016,08,30,08,46,14.70
2016,08,30,08,47,14.70
2016,08,30,08,48,14.70
2016,08,30,08,49,14.70
2016,08,30,08,51,14.80
2016,08,30,08,52,14.80
2016,08,30,08,53,14.80
2016,08,30,08,54,14.90
2016,08,30,08,56,15.00
2016,08,30,08,57,15.10
2016,08,30,08,58,15.20
2016,08,30,08,59,15.20
2016,08,30,09,01,15.20
2016,08,30,09,02,15.20
2016,08,30,09,03,15.20
2016,08,30,09,04,15.20
2016,08,30,09,06,15.30
2016,08,30,09,07,15.30
2016,08,30,09,08,15.30
2016,08,30,09,09,15.40
2016,08,30,09,11,15.60
2016,08,30,09,12,15.60
2016,08,30,09,13,15.60
2016,08,30,09,14,15.60
2016,08,30,09,15,15.50
2016,08,30,09,16,15.50
2016,08,30,09,17,15.40
2016,08,30,09,18,15.40
2016,08,30,09,19,15.40
2016,08,30,09,20,15.30
2016,08,30,09,21,15.30
2016,08,30,09,22,15.30
2016,08,30,09,23,15.30
2016,08,30,09,24,15.30
2016,08,30,09,25,15.30
2016,08,30,09,26,15.30
2016,08,30,09,27,15.30
2016,08,30,09,28,15.30
2016,08,30,09,29,15.30
2016,08,30,09,30,15.40
2016,08,30,09,31,15.40
2016,08,30,09,32,15.50
2016,08,30,09,33,15.50
2016,08,30,09,34,15.50
2016,08,30,09,35,15.50
2016,08,30,09,36,15.60
2016,08,30,09,37,15.60
2016,08,30,09,38,15.60
2016,08,30,09,39,15.60
2016,08,30,09,40,15.60
2016,08,30,09,41,15.60
2016,08,30,09,42,15.60
2016,08,30,09,43,15.50
2016,08,30,09,44,15.40
2016,08,30,09,45,15.40
2016,08,30,09,46,15.30
2016,08,30,10,13,15.80
2016,08,30,10,14,15.80
2016,08,30,10,15,15.80
2016,08,30,10,16,15.80
2016,08,30,10,17,15.80
2016,08,30,10,18,15.80
2016,08,30,10,19,15.80
2016,08,30,10,21,15.70
2016,08,30,10,22,15.70
2016,08,30,10,23,15.70
2016,08,30,10,24,15.70
2016,08,30,10,26,15.70
2016,08,30,10,27,15.70
2016,08,30,10,28,15.70
2016,08,30,10,29,15.80
2016,08,30,10,31,15.70
2016,08,30,10,32,15.70
2016,08,30,10,33,15.70
2016,08,30,10,34,15.60
2016,08,30,10,36,15.60
2016,08,30,10,37,15.60
2016,08,30,10,38,15.60
2016,08,30,10,39,15.60
2016,08,30,10,41,15.60
2016,08,30,10,42,15.60
2016,08,30,10,43,15.60
2016,08,30,10,44,15.60
2016,08,30,10,46,15.50
2016,08,30,10,47,15.50
2016,08,30,10,48,15.50
2016,08,30,10,49,15.50
2016,08,30,10,51,15.50
2016,08,30,10,52,15.60
2016,08,30,10,53,15.60
2016,08,30,10,54,15.60
2016,08,30,10,56,15.60
2016,08,30,10,57,15.60
2016,08,30,10,58,15.60
2016,08,30,10,59,15.60
2016,08,30,11,01,15.50
2016,08,30,11,02,15.50
2016,08,30,11,03,15.50
2016,08,30,11,04,15.50
2016,08,30,11,06,15.40
2016,08,30,11,07,15.40
2016,08,30,11,08,15.30
2016,08,30,11,09,15.30
2016,08,30,11,11,15.30
2016,08,30,11,12,15.40
2016,08,30,11,13,15.50
2016,08,30,11,14,15.50
2016,08,30,11,16,15.70
2016,08,30,11,17,15.80
2016,08,30,11,18,15.80
2016,08,30,11,19,15.80
2016,08,30,11,21,15.90
2016,08,30,11,22,16.10
2016,08,30,11,23,16.10
2016,08,30,11,24,16.10
2016,08,30,11,26,16.10
2016,08,30,11,27,16.10
2016,08,30,11,28,16.20
2016,08,30,11,29,16.20
2016,08,30,11,31,16.30
2016,08,30,11,32,16.30
2016,08,30,11,33,16.40
2016,08,30,11,34,16.40
2016,08,30,11,36,16.40
2016,08,30,11,37,16.40
2016,08,30,11,38,16.40
2016,08,30,11,39,16.40
2016,08,30,11,41,16.40
2016,08,30,11,42,16.40
2016,08,30,11,43,16.40
2016,08,30,11,44,16.40
2016,08,30,11,45,16.40
2016,08,30,11,46,16.40
2016,08,30,11,47,16.40
2016,08,30,11,48,16.40
2016,08,30,11,49,16.40
2016,08,30,11,51,16.40
2016,08,30,11,52,16.40
2016,08,30,11,53,16.40
2016,08,30,11,54,16.40
2016,08,30,11,55,16.40
2016,08,30,11,56,16.40
2016,08,30,11,57,16.40
2016,08,30,11,58,16.40
2016,08,30,11,59,16.40
2016,08,30,12,00,16.40
2016,08,30,12,01,16.40
2016,08,30,12,02,16.40
2016,08,30,12,03,16.40
2016,08,30,12,04,16.40
2016,08,30,12,06,16.40
2016,08,30,12,07,16.40
2016,08,30,12,08,16.30
2016,08,30,12,09,16.30
2016,08,30,12,10,16.30
2016,08,30,12,11,16.30
2016,08,30,12,12,16.30
2016,08,30,12,13,16.30
2016,08,30,12,14,16.20
2016,08,30,12,15,16.30
2016,08,30,12,16,16.30
2016,08,30,12,17,16.30
2016,08,30,12,18,16.30
2016,08,30,12,19,16.30
2016,08,30,12,20,16.40
2016,08,30,12,21,16.40
2016,08,30,12,22,16.40
2016,08,30,12,23,16.40
2016,08,30,12,24,16.60
2016,08,30,12,25,16.60
2016,08,30,12,26,16.60
2016,08,30,12,27,16.70
2016,08,30,12,28,16.70
2016,08,30,12,29,16.70
2016,08,30,12,30,16.70
2016,08,30,12,31,16.70
2016,08,30,12,32,16.70
2016,08,30,12,33,16.70
2016,08,30,12,34,16.70
2016,08,30,12,35,16.70
2016,08,30,12,36,16.70
2016,08,30,12,37,16.70
2016,08,30,12,38,16.70
2016,08,30,12,39,16.70
2016,08,30,12,40,16.60
2016,08,30,12,41,16.60
2016,08,30,12,42,16.60
2016,08,30,12,43,16.60
2016,08,30,12,44,16.40
2016,08,30,12,45,16.40
2016,08,30,12,46,16.40
2016,08,30,12,47,16.40
2016,08,30,12,48,16.40
2016,08,30,12,49,16.40
2016,08,30,12,50,16.40
2016,08,30,12,51,16.40
2016,08,30,12,52,16.40
2016,08,30,12,53,16.40
2016,08,30,12,54,16.40
2016,08,30,12,55,16.30
2016,08,30,12,56,16.30
2016,08,30,12,57,16.20
2016,08,30,12,58,16.20
2016,08,30,12,59,16.20
2016,08,30,13,00,16.20
2016,08,30,13,01,16.10
2016,08,30,13,02,16.10
2016,08,30,13,03,16.10
2016,08,30,13,04,16.10
2016,08,30,13,05,15.90
2016,08,30,13,06,15.90
2016,08,30,13,07,15.90
2016,08,30,13,08,15.90
2016,08,30,13,09,15.80
2016,08,30,13,10,15.80
2016,08,30,13,11,15.80
2016,08,30,13,12,15.80
2016,08,30,13,13,15.80
2016,08,30,14,13,15.90
2016,08,30,14,14,15.90
2016,08,30,14,15,15.90
2016,08,30,14,16,15.90
2016,08,30,14,17,15.90
2016,08,30,14,18,15.90
2016,08,30,14,19,15.90
2016,08,30,14,20,15.90
2016,08,30,14,22,15.80
2016,08,30,14,23,15.80
2016,08,30,14,24,15.80
2016,08,30,14,26,15.60
2016,08,30,14,27,15.60
2016,08,30,14,28,15.60
2016,08,30,14,29,15.60
2016,08,30,14,31,15.60
2016,08,30,14,32,15.60
2016,08,30,14,33,15.60
2016,08,30,14,34,15.60
2016,08,30,14,36,15.60
2016,08,30,14,37,15.60
2016,08,30,14,38,15.60
2016,08,30,14,39,15.60
2016,08,30,14,41,15.60
2016,08,30,14,42,15.60
2016,08,30,14,43,15.60
2016,08,30,14,44,15.60
2016,08,30,14,46,15.70
2016,08,30,14,47,15.80
2016,08,30,14,48,15.80
2016,08,30,14,49,15.80
2016,08,30,14,51,15.90
2016,08,30,14,52,15.90
2016,08,30,14,53,16.10
2016,08,30,14,54,16.10
2016,08,30,14,56,16.10
2016,08,30,14,57,16.20
2016,08,30,14,58,16.20
2016,08,30,14,59,16.20
2016,08,30,15,01,16.10
2016,08,30,15,02,16.10
2016,08,30,15,03,16.10
2016,08,30,15,04,15.90
2016,08,30,15,06,15.90
2016,08,30,15,07,15.90
2016,08,30,15,08,15.80
2016,08,30,15,09,15.80
2016,08,30,15,11,15.80
2016,08,30,15,12,15.80
2016,08,30,15,13,15.80
2016,08,30,15,14,15.80
2016,08,30,15,16,15.80
2016,08,30,15,17,15.90
2016,08,30,15,18,15.90
2016,08,30,15,19,15.90
2016,08,30,15,21,15.90
2016,08,30,15,22,15.80
2016,08,30,15,23,15.80
2016,08,30,15,24,15.80
2016,08,30,15,26,15.80
2016,08,30,15,27,15.80
2016,08,30,15,28,15.80
2016,08,30,15,29,15.80
2016,08,30,15,31,15.80
2016,08,30,15,32,15.80
2016,08,30,15,33,15.80
2016,08,30,15,34,15.80
2016,08,30,15,36,15.90
2016,08,30,15,37,16.10
2016,08,30,15,38,16.10
2016,08,30,15,39,16.10
2016,08,30,15,41,16.30
2016,08,30,15,42,16.40
2016,08,30,15,43,16.40
2016,08,30,15,44,16.60
2016,08,30,15,45,16.70
2016,08,30,15,46,16.70
2016,08,30,15,47,16.70
2016,08,30,15,48,16.70
2016,08,30,15,49,16.80
2016,08,30,15,51,16.90
2016,08,30,15,52,17.00
2016,08,30,15,53,17.00
2016,08,30,15,54,17.00
2016,08,30,15,55,17.10
2016,08,30,15,56,17.20
2016,08,30,15,57,17.30
2016,08,30,15,58,17.30
2016,08,30,15,59,17.40
2016,08,30,16,00,17.60
2016,08,30,16,01,17.70
2016,08,30,16,02,17.80
2016,08,30,16,03,17.90
2016,08,30,16,04,17.90
2016,08,30,16,06,18.10
2016,08,30,16,07,18.10
2016,08,30,16,08,18.10
2016,08,30,16,09,18.10
2016,08,30,16,10,17.90
2016,08,30,16,11,17.90
2016,08,30,16,12,17.90
2016,08,30,16,13,17.90
2016,08,30,16,14,17.90
2016,08,30,16,15,17.80
2016,08,30,16,16,17.80
2016,08,30,16,17,17.80
2016,08,30,16,18,17.70
2016,08,30,16,19,17.70
2016,08,30,16,20,17.60
2016,08,30,16,21,17.60
2016,08,30,16,22,17.50
2016,08,30,16,23,17.50
2016,08,30,16,24,17.40
2016,08,30,16,25,17.40
2016,08,30,16,26,17.30
2016,08,30,16,27,17.30
2016,08,30,16,28,17.30
2016,08,30,16,29,17.20
2016,08,30,16,30,17.10
2016,08,30,16,31,17.10
2016,08,30,16,32,17.10
2016,08,30,16,33,17.10
2016,08,30,16,34,17.20
2016,08,30,16,35,17.30
2016,08,30,16,36,17.30
2016,08,30,16,37,17.50
2016,08,30,16,38,17.60
2016,08,30,16,39,17.70
2016,08,30,16,40,17.80
2016,08,30,16,41,17.90
2016,08,30,16,42,17.90
2016,08,30,16,43,17.90
2016,08,30,16,44,17.90
2016,08,30,16,45,18.10
2016,08,30,16,46,18.10
2016,08,30,16,47,18.20
2016,08,30,16,48,18.20
2016,08,30,16,49,18.20
2016,08,30,16,50,18.20
2016,08,30,16,51,18.20
2016,08,30,16,52,18.20
2016,08,30,16,53,18.20
2016,08,30,16,54,18.20
2016,08,30,16,55,18.30
2016,08,30,16,56,18.30
2016,08,30,16,57,18.40
2016,08,30,16,58,18.40
2016,08,30,16,59,18.50
2016,08,30,17,00,18.60
2016,08,30,17,01,18.70
2016,08,30,17,02,18.80
2016,08,30,17,03,18.90
2016,08,30,17,04,18.90
2016,08,30,17,05,19.10
2016,08,30,17,06,19.10
2016,08,30,17,07,19.10
2016,08,30,17,08,19.20
2016,08,30,17,09,19.20
2016,08,30,17,10,19.20
2016,08,30,17,11,19.20
2016,08,30,17,12,19.20
2016,08,30,17,13,19.20
2016,08,30,17,14,19.20
2016,08,30,17,16,19.20
2016,08,30,17,17,19.10
2016,08,30,17,18,18.90
2016,08,30,17,19,18.80
2016,08,30,17,21,18.50
2016,08,30,17,22,18.30
2016,08,30,17,23,18.20
2016,08,30,17,24,18.20
2016,08,30,17,26,18.10
2016,08,30,17,27,17.90
2016,08,30,17,28,17.90
2016,08,30,17,29,17.80
2016,08,30,17,31,17.70
2016,08,30,17,32,17.60
2016,08,30,17,33,17.60
2016,08,30,17,34,17.50
2016,08,30,17,36,17.50
2016,08,30,17,37,17.40
2016,08,30,17,38,17.40
2016,08,30,17,39,17.40
2016,08,30,17,41,17.40
2016,08,30,17,42,17.40
2016,08,30,17,43,17.30
2016,08,30,17,44,17.30
2016,08,30,17,46,17.30
2016,08,30,17,47,17.30
2016,08,30,17,48,17.30
2016,08,30,17,49,17.30
2016,08,30,17,51,17.20
2016,08,30,17,52,17.20
2016,08,30,17,53,17.20
2016,08,30,17,54,17.20
2016,08,30,17,56,17.20
2016,08,30,17,57,17.20
2016,08,30,17,58,17.10
2016,08,30,17,59,17.10
2016,08,30,18,01,17.00
2016,08,30,18,02,17.00
2016,08,30,18,03,16.90
2016,08,30,18,04,16.90
2016,08,30,18,06,16.90
2016,08,30,18,07,16.90
2016,08,30,18,08,17.00
2016,08,30,18,09,17.10
2016,08,30,18,11,17.20
2016,08,30,18,12,17.30
2016,08,30,18,13,17.30
2016,08,30,18,14,17.30
2016,08,30,18,16,17.40
2016,08,30,18,17,17.50
2016,08,30,18,18,17.60
2016,08,30,18,19,17.70
2016,08,30,18,21,17.80
2016,08,30,18,22,17.80
2016,08,30,18,23,17.70
2016,08,30,18,24,17.70
2016,08,30,18,26,17.40
2016,08,30,18,27,17.30
2016,08,30,18,28,17.30
2016,08,30,18,29,17.20
2016,08,30,18,31,16.90
2016,08,30,18,32,16.80
2016,08,30,18,33,16.70
2016,08,30,18,34,16.70
2016,08,30,18,36,16.40
2016,08,30,18,37,16.40
2016,08,30,18,38,16.40
2016,08,30,18,39,16.30
2016,08,30,18,41,16.30
2016,08,30,18,42,16.20
2016,08,30,18,43,16.20
2016,08,30,18,44,16.30
2016,08,30,18,45,16.30
2016,08,30,18,46,16.30
2016,08,30,18,47,16.40
2016,08,30,18,48,16.40
2016,08,30,18,49,16.40
2016,08,30,18,50,16.40
2016,08,30,18,51,16.40
2016,08,30,18,52,16.60
2016,08,30,18,53,16.60
2016,08,30,18,54,16.60
2016,08,30,18,55,16.60
2016,08,30,18,56,16.60
2016,08,30,18,57,16.60
2016,08,30,18,58,16.60
2016,08,30,18,59,16.40
2016,08,30,19,00,16.40
2016,08,30,19,01,16.40
2016,08,30,19,02,16.40
2016,08,30,19,03,16.30
2016,08,30,19,04,16.30
2016,08,30,19,06,16.30
2016,08,30,19,07,16.30
2016,08,30,19,08,16.30
2016,08,30,19,09,16.30
2016,08,30,19,10,16.30
2016,08,30,19,11,16.30
2016,08,30,19,12,16.30
2016,08,30,19,13,16.30
2016,08,30,19,14,16.30
2016,08,30,19,15,16.30
2016,08,30,19,16,16.30
2016,08,30,19,17,16.30
2016,08,30,19,18,16.30
2016,08,30,19,19,16.30
2016,08,30,19,20,16.30
2016,08,30,19,21,16.30
2016,08,30,19,22,16.30
2016,08,30,19,23,16.30
2016,08,30,19,24,16.30
2016,08,30,19,25,16.30
2016,08,30,19,26,16.30
2016,08,30,19,27,16.30
2016,08,30,19,28,16.30
2016,08,30,19,29,16.30
2016,08,30,19,30,16.20
2016,08,30,19,31,16.20
2016,08,30,19,32,16.20
2016,08,30,19,33,16.20
2016,08,30,19,34,16.20
2016,08,30,19,35,16.20
2016,08,30,19,36,16.10
2016,08,30,19,37,16.10
2016,08,30,19,38,16.10
2016,08,30,19,39,16.10
2016,08,30,19,40,16.10
2016,08,30,19,41,16.10
2016,08,30,19,42,16.10
2016,08,30,19,43,16.10
2016,08,30,19,44,16.10
2016,08,30,19,45,16.10
2016,08,30,19,46,16.10
2016,08,30,19,47,15.90
2016,08,30,19,48,15.90
2016,08,30,19,49,15.80
2016,08,30,19,50,15.80
2016,08,30,19,51,15.80
2016,08,30,19,52,15.80
2016,08,30,19,53,15.70
2016,08,30,19,54,15.60
2016,08,30,19,55,15.50
2016,08,30,19,56,15.50
2016,08,30,19,57,15.40
2016,08,30,19,58,15.40
2016,08,30,19,59,15.30
2016,08,30,20,00,15.30
2016,08,30,20,02,15.30
2016,08,30,20,03,15.30
2016,08,30,20,04,15.30
2016,08,30,20,06,15.30
2016,08,30,20,07,15.20
2016,08,30,20,08,15.20
2016,08,30,20,09,15.20
2016,08,30,20,11,15.20
2016,08,30,20,12,15.20
2016,08,30,20,13,15.30
2016,08,30,20,14,15.30
2016,08,30,20,16,15.30
2016,08,30,20,17,15.30
2016,08,30,20,18,15.30
2016,08,30,20,19,15.30
2016,08,30,20,21,15.50
2016,08,30,20,22,15.50
2016,08,30,20,23,15.60
2016,08,30,20,24,15.60
2016,08,30,20,26,15.70
2016,08,30,20,27,15.80
2016,08,30,20,28,15.80
2016,08,30,20,29,15.80
2016,08,30,20,31,15.80
2016,08,30,20,32,15.90
2016,08,30,20,33,15.90
2016,08,30,20,34,15.90
2016,08,30,20,36,15.90
2016,08,30,20,37,15.80
2016,08,30,20,38,15.80
2016,08,30,20,39,15.80
2016,08,30,20,41,15.80
2016,08,30,20,42,15.70
2016,08,30,20,43,15.70
2016,08,30,20,44,15.70
2016,08,30,20,46,15.70
2016,08,30,20,47,15.70
2016,08,30,20,48,15.70
2016,08,30,20,49,15.70
2016,08,30,20,51,15.60
2016,08,30,20,52,15.60
2016,08,30,20,53,15.60
2016,08,30,20,54,15.60
2016,08,30,20,56,15.60
2016,08,30,20,57,15.60
2016,08,30,20,58,15.60
2016,08,30,20,59,15.60
2016,08,30,21,01,15.60
2016,08,30,21,02,15.60
2016,08,30,21,03,15.50
2016,08,30,21,04,15.50
2016,08,30,21,06,15.50
2016,08,30,21,07,15.50
2016,08,30,21,08,15.50